[[{"header":{"parameterUnit":"m.s-1","parameterCategory":1,"la1":30.2991,"la2":30.254,"lo1":-89.0895,"lo2":-89.0444,"dy":0.0017,"dx":0.0017,"nx":28,"ny":28,"refTime":"2023-10-30T03:00:00:Z","depth":0,"parameterNumber":2,"parameterNumberName":"U-component_of_WINDS"},"data":[0,0,0,0,0,0,0,0,0,0,0,0,0,0,0,0,0,0,0,0,0,0,0,0,0,0,0,0,0,0,0,0,0,0,0,0,0,0,0,0,0,0,0,0,0,0,0,0,0,0,0,0,0,0,0,0,0,0,1.3683,1.3683,0,1.3701,1.3701,1.3702,1.3706,1.3706,1.3706,1.3706,1.3724,1.3725,1.3725,0,0,0,0,0,0,0,0,0,0,0,0,0,1.3653,1.3653,1.3683,1.3683,1.3683,1.3701,1.3701,1.3702,1.3706,1.3706,1.3706,1.3706,1.3724,1.3725,1.3725,0,0,0,0,0,0,0,0,0,0,0,0,0,1.3668,1.3653,1.3683,1.3688,1.3689,1.3701,1.3701,1.3702,1.3706,1.3706,1.3706,1.3706,1.3724,1.3724,1.3725,1.3734,0,0,1.3728,1.3728,0,0,0,0,0,0,0,0,1.3667,1.3669,1.3687,1.3688,1.3688,1.3701,1.3697,1.3713,1.3706,1.37,1.3706,1.3706,1.3717,1.3718,1.3722,1.3735,1.3736,1.3728,1.3729,1.3729,1.3729,0,0,0,0,0,0,0,1.3666,1.3668,1.369,1.3687,1.3688,1.3689,1.3691,1.37,1.3709,1.37,1.37,1.3703,1.3717,1.3721,1.3722,1.3736,1.3728,1.3729,1.3729,1.373,1.3759,1.3759,0,0,0,0,0,0,1.3664,1.3667,1.369,1.3691,1.3677,1.369,1.3692,1.3697,1.3709,1.371,1.3703,1.3703,1.372,1.3721,1.3723,1.3734,1.3729,1.373,1.373,1.3758,1.3759,1.3759,0,0,0,0,0,0,1.3663,1.3666,1.3689,1.3679,1.3682,1.3691,1.3696,1.3698,1.3702,1.3711,1.3712,1.3705,1.3719,1.3722,1.3732,1.3735,1.373,1.3731,1.3758,1.3758,1.3759,1.3757,0,0,0,0,0,0,1.3663,1.3666,1.3669,1.3679,1.3683,1.3697,1.3697,1.3698,1.3703,1.3703,1.3713,1.3715,1.3719,1.373,1.3732,1.3736,1.3732,1.3758,1.3758,1.3759,1.3757,1.3757,1.3758,0,0,0,0,0,1.3661,1.3667,1.3669,1.3672,1.3687,1.3697,1.3699,1.3704,1.3704,1.3707,1.3713,1.3715,1.3735,1.3731,1.3734,1.3738,1.3757,1.3758,1.3759,1.3757,1.3757,1.3758,0,0,0,0,0,0,1.3657,1.3669,1.3671,1.368,1.3688,1.3698,1.3702,1.3705,1.3712,1.3712,1.3719,1.3721,1.373,1.3735,1.3731,1.3748,1.3746,1.3747,1.3744,1.3745,1.3745,1.3743,1.3732,0,0,0,0,0,1.3657,1.3664,1.3675,1.3682,1.3686,1.3694,1.3698,1.3702,1.371,1.3713,1.3719,1.3727,1.3735,1.374,1.3748,1.3758,1.3761,1.3762,1.3763,1.3763,1.3764,1.377,1.3771,1.3761,1.3761,1.3761,0,0,1.3657,1.3665,1.3669,1.3681,1.3688,1.3695,1.3696,1.3704,1.371,1.3714,1.3724,1.3729,1.3738,1.3748,1.3753,1.3753,1.3767,1.3764,1.3764,1.3764,1.3771,1.3772,1.3773,1.3761,1.3761,1.3761,0,0,1.3662,1.3668,1.3675,1.3682,1.3691,1.3697,1.3699,1.3709,1.3713,1.3723,1.3726,1.3734,1.3747,1.3754,1.3759,1.3767,1.3769,1.377,1.3772,1.3778,1.3779,1.378,1.3783,1.3784,1.377,1.377,1.377,0,1.3661,1.3672,1.3679,1.3687,1.3692,1.3697,1.3705,1.3711,1.3722,1.3726,1.3726,1.3744,1.375,1.3762,1.3764,1.3768,1.3771,1.3768,1.3778,1.3779,1.378,1.3783,1.3784,1.377,1.377,1.377,1.377,0,1.3671,1.3679,1.3684,1.3695,1.3702,1.3709,1.3717,1.3723,1.3726,1.3732,1.3743,1.3751,1.3761,1.3764,1.3767,1.3777,1.3776,1.3777,1.3775,1.3781,1.3784,1.3785,1.377,1.377,1.377,1.377,0,0,1.3671,1.3688,1.3689,1.3695,1.3707,1.3713,1.3722,1.3732,1.3737,1.3745,1.3752,1.3765,1.3766,1.3771,1.3776,1.3781,1.3788,1.3781,1.3781,1.3782,1.38,1.3799,1.38,1.379,1.379,1.379,1.3799,0,1.3677,1.3693,1.3699,1.3711,1.3719,1.3725,1.3732,1.374,1.3746,1.3754,1.376,1.3769,1.377,1.3773,1.3779,1.3786,1.3791,1.3785,1.3796,1.3797,1.3794,1.3802,1.3801,1.3808,1.38,1.38,1.38,0,1.3686,1.3695,1.3708,1.372,1.3723,1.373,1.374,1.3747,1.3757,1.3761,1.3768,1.3773,1.3782,1.3781,1.3794,1.379,1.3795,1.3799,1.38,1.38,1.3798,1.3802,1.3811,1.3812,1.3802,1.3802,1.3802,0,1.3685,1.3701,1.3711,1.3715,1.3729,1.3734,1.374,1.3749,1.3755,1.3765,1.3769,1.3779,1.3784,1.3792,1.3799,1.3798,1.3812,1.3811,1.3816,1.3816,1.3818,1.3818,1.3827,1.3822,1.3822,1.3822,1.3822,0,1.3691,1.3699,1.3711,1.3717,1.3726,1.3734,1.3743,1.3749,1.3758,1.3766,1.3771,1.3778,1.3788,1.3796,1.3802,1.3812,1.3815,1.3818,1.3819,1.3817,1.3817,1.382,1.382,1.3822,1.3822,1.3822,1.3822,0,1.3691,1.37,1.3711,1.3724,1.3727,1.3733,1.3744,1.3751,1.3757,1.3767,1.377,1.378,1.379,1.3798,1.3812,1.3816,1.3827,1.3828,1.3823,1.3824,1.3828,1.3828,1.384,1.3842,1.3835,1.3836,1.3836,0,1.3694,1.37,1.3714,1.372,1.3726,1.3735,1.3741,1.375,1.3756,1.3769,1.3774,1.3785,1.3793,1.381,1.3819,1.3829,1.3831,1.3834,1.3832,1.383,1.3831,1.383,1.3831,1.3834,1.3834,1.3835,1.3835,0,1.3698,1.3703,1.3712,1.3723,1.373,1.3739,1.3748,1.3752,1.3763,1.377,1.3781,1.3788,1.3802,1.3813,1.3824,1.3831,1.3834,1.3835,1.3837,1.3835,1.3832,1.3833,1.3824,1.3835,1.3835,1.3835,1.3835,1.3835,1.37,1.3706,1.3717,1.3727,1.3735,1.3744,1.3751,1.3758,1.3768,1.378,1.3785,1.3796,1.3806,1.3822,1.3829,1.3838,1.3838,1.3841,1.3841,1.3841,1.3841,1.3831,1.384,1.384,1.384,1.384,1.384,0,1.3705,1.3712,1.3722,1.3734,1.3743,1.3746,1.3757,1.3763,1.3773,1.3783,1.3792,1.3805,1.3816,1.3826,1.3837,1.3842,1.3844,1.3845,1.3845,1.3846,1.384,1.3838,1.3843,1.3843,1.3843,1.3843,1.3843,1.3843,1.3708,1.3719,1.3724,1.3739,1.3747,1.3758,1.3764,1.3772,1.378,1.3794,1.3803,1.381,1.382,1.3832,1.3842,1.3845,1.3849,1.3849,1.3852,1.3847,1.3846,1.3846,1.3844,1.385,1.385,1.3857,1.3857,1.3857]},{"header":{"parameterUnit":"m.s-1","parameterCategory":1,"la1":30.2991,"la2":30.254,"lo1":-89.0895,"lo2":-89.0444,"dy":0.0017,"dx":0.0017,"nx":28,"ny":28,"refTime":"2023-10-30T03:00:00:Z","depth":0,"parameterNumber":3,"parameterNumberName":"V-component_of_WINDS"},"data":[0,0,0,0,0,0,0,0,0,0,0,0,0,0,0,0,0,0,0,0,0,0,0,0,0,0,0,0,0,0,0,0,0,0,0,0,0,0,0,0,0,0,0,0,0,0,0,0,0,0,0,0,0,0,0,0,0,0,-8.5666,-8.5668,0,-8.5813,-8.5815,-8.5817,-8.5753,-8.575,-8.5746,-8.5743,-8.5885,-8.5892,-8.5899,0,0,0,0,0,0,0,0,0,0,0,0,0,-8.5325,-8.5331,-8.5666,-8.5668,-8.567,-8.5813,-8.5815,-8.5817,-8.5754,-8.575,-8.5745,-8.5741,-8.5882,-8.5891,-8.5899,0,0,0,0,0,0,0,0,0,0,0,0,0,-8.5472,-8.5333,-8.5666,-8.5656,-8.5657,-8.5813,-8.5815,-8.5818,-8.5755,-8.575,-8.5744,-8.5739,-8.588,-8.589,-8.59,-8.6072,0,0,-8.5933,-8.5938,0,0,0,0,0,0,0,0,-8.5464,-8.5485,-8.5656,-8.5657,-8.5658,-8.576,-8.5747,-8.5903,-8.5756,-8.5717,-8.5743,-8.5737,-8.5847,-8.586,-8.5899,-8.6079,-8.6085,-8.5934,-8.594,-8.5945,-8.5948,0,0,0,0,0,0,0,-8.5454,-8.5478,-8.5724,-8.5658,-8.566,-8.5642,-8.5657,-8.5776,-8.581,-8.572,-8.5716,-8.5735,-8.5846,-8.5889,-8.5902,-8.6087,-8.5934,-8.5943,-8.595,-8.5954,-8.6418,-8.6424,0,0,0,0,0,0,-8.5445,-8.547,-8.5719,-8.5728,-8.5546,-8.5653,-8.5669,-8.5732,-8.5808,-8.5815,-8.5739,-8.5731,-8.5873,-8.5889,-8.5906,-8.6115,-8.5945,-8.5955,-8.5961,-8.6412,-8.6419,-8.6426,0,0,0,0,0,0,-8.5437,-8.5467,-8.5713,-8.5598,-8.5628,-8.5664,-8.5735,-8.5738,-8.578,-8.5823,-8.5828,-8.5777,-8.587,-8.5891,-8.6033,-8.6118,-8.5959,-8.5969,-8.6405,-8.6414,-8.6423,-8.6531,0,0,0,0,0,0,-8.5428,-8.5465,-8.5532,-8.56,-8.5635,-8.584,-8.574,-8.5745,-8.58,-8.5791,-8.5859,-8.5865,-8.5867,-8.6017,-8.6043,-8.613,-8.5977,-8.6397,-8.6409,-8.642,-8.652,-8.6543,-8.6562,0,0,0,0,0,-8.5416,-8.5554,-8.5536,-8.5566,-8.572,-8.5845,-8.5864,-8.5866,-8.5807,-8.5874,-8.5902,-8.5863,-8.6105,-8.6032,-8.6061,-8.6152,-8.6392,-8.6406,-8.6419,-8.651,-8.6538,-8.6561,0,0,0,0,0,0,-8.5491,-8.5563,-8.5543,-8.5708,-8.5772,-8.5834,-8.5918,-8.5894,-8.5973,-8.5961,-8.5957,-8.5973,-8.612,-8.615,-8.6068,-8.6324,-8.6239,-8.6259,-8.6299,-8.6326,-8.6346,-8.6336,-8.5986,0,0,0,0,0,-8.5528,-8.5626,-8.5682,-8.5822,-8.5855,-8.5882,-8.5936,-8.5933,-8.5996,-8.6022,-8.6059,-8.6121,-8.6211,-8.627,-8.6354,-8.6524,-8.6538,-8.6601,-8.6622,-8.6639,-8.6656,-8.675,-8.6779,-8.647,-8.647,-8.647,0,0,-8.5602,-8.5654,-8.5715,-8.5839,-8.5887,-8.5987,-8.5904,-8.6012,-8.6086,-8.6037,-8.6174,-8.6204,-8.6272,-8.643,-8.65,-8.6459,-8.6745,-8.6656,-8.667,-8.6677,-8.6767,-8.6796,-8.6822,-8.6479,-8.6477,-8.6476,0,0,-8.579,-8.5839,-8.5963,-8.6014,-8.609,-8.6108,-8.6138,-8.6205,-8.6224,-8.6363,-8.6329,-8.6415,-8.6569,-8.662,-8.6666,-8.6878,-8.6846,-8.6906,-8.7015,-8.7106,-8.7131,-8.7152,-8.7229,-8.7256,-8.6922,-8.6923,-8.6923,0,-8.5873,-8.6025,-8.6028,-8.6142,-8.6197,-8.6161,-8.6286,-8.6334,-8.6433,-8.6471,-8.6424,-8.662,-8.6663,-8.6833,-8.6885,-8.6923,-8.6956,-8.6897,-8.7128,-8.7149,-8.7169,-8.7242,-8.7271,-8.6929,-8.6929,-8.6928,-8.6927,0,-8.6124,-8.623,-8.632,-8.6421,-8.6487,-8.6604,-8.6624,-8.669,-8.6681,-8.6703,-8.6845,-8.6896,-8.6992,-8.7032,-8.7023,-8.7201,-8.7173,-8.7128,-8.7042,-8.7206,-8.7274,-8.7302,-8.6939,-8.6937,-8.6935,-8.6933,0,0,-8.6361,-8.6466,-8.6499,-8.6545,-8.6628,-8.6709,-8.6826,-8.6923,-8.698,-8.7049,-8.7147,-8.7281,-8.724,-8.7292,-8.7289,-8.7369,-8.7535,-8.7313,-8.7315,-8.7353,-8.7736,-8.7771,-8.7803,-8.7515,-8.752,-8.7525,-8.7731,0,-8.6556,-8.6764,-8.6772,-8.6961,-8.706,-8.7029,-8.713,-8.7191,-8.7215,-8.7301,-8.7326,-8.7422,-8.736,-8.7392,-8.747,-8.7499,-8.7612,-8.7484,-8.7604,-8.7609,-8.7589,-8.7839,-8.7875,-8.8067,-8.7757,-8.7762,-8.7765,0,-8.6811,-8.6894,-8.7094,-8.7167,-8.7208,-8.73,-8.7391,-8.7473,-8.7542,-8.7554,-8.7615,-8.7601,-8.7719,-8.7631,-8.7793,-8.7706,-8.7755,-8.7777,-8.7785,-8.7796,-8.7697,-8.7857,-8.8128,-8.8158,-8.7807,-8.7804,-8.7801,0,-8.6966,-8.7127,-8.7269,-8.7309,-8.7396,-8.7462,-8.75,-8.7564,-8.7623,-8.7702,-8.774,-8.7831,-8.788,-8.795,-8.796,-8.7895,-8.8123,-8.8035,-8.8136,-8.8136,-8.8185,-8.8182,-8.8469,-8.8217,-8.8216,-8.8215,-8.8215,0,-8.7183,-8.7307,-8.734,-8.7427,-8.7565,-8.7572,-8.7708,-8.7741,-8.7799,-8.7891,-8.7868,-8.7953,-8.7962,-8.805,-8.8058,-8.8192,-8.8214,-8.8226,-8.8227,-8.8229,-8.8228,-8.8261,-8.8248,-8.8223,-8.8221,-8.822,-8.8219,0,-8.7379,-8.7406,-8.7558,-8.763,-8.7651,-8.775,-8.781,-8.7893,-8.7916,-8.8032,-8.806,-8.8095,-8.8199,-8.8216,-8.8336,-8.8341,-8.8502,-8.8488,-8.848,-8.8479,-8.8578,-8.8569,-8.8897,-8.8941,-8.866,-8.8662,-8.8665,0,-8.7516,-8.7612,-8.7695,-8.7757,-8.7801,-8.79,-8.7962,-8.7972,-8.8037,-8.8125,-8.8197,-8.8299,-8.838,-8.8546,-8.8581,-8.8673,-8.8662,-8.8771,-8.8675,-8.8675,-8.8665,-8.8659,-8.8669,-8.8789,-8.8792,-8.8794,-8.8796,0,-8.7757,-8.7767,-8.7859,-8.7957,-8.8032,-8.8108,-8.818,-8.8231,-8.8251,-8.8325,-8.8433,-8.8497,-8.8622,-8.8723,-8.8815,-8.8852,-8.8828,-8.8827,-8.8855,-8.8858,-8.885,-8.8857,-8.8531,-8.8819,-8.8816,-8.8815,-8.8814,-8.8813,-8.7929,-8.8013,-8.8087,-8.819,-8.8247,-8.8315,-8.8398,-8.8433,-8.8524,-8.863,-8.863,-8.8748,-8.8815,-8.8938,-8.8981,-8.9072,-8.9037,-8.9077,-8.9088,-8.9098,-8.9108,-8.8836,-8.9089,-8.9088,-8.9087,-8.9087,-8.9087,0,-8.817,-8.8217,-8.8312,-8.8416,-8.8498,-8.8472,-8.8551,-8.862,-8.8726,-8.8792,-8.8875,-8.8999,-8.9098,-8.9142,-8.9239,-8.9304,-8.9295,-8.9329,-8.9324,-8.9333,-8.9134,-8.91,-8.9334,-8.9334,-8.9334,-8.9334,-8.9334,-8.9334,-8.8305,-8.8448,-8.8466,-8.8637,-8.8682,-8.88,-8.8848,-8.8911,-8.8965,-8.9106,-8.919,-8.922,-8.9277,-8.9379,-8.9468,-8.9478,-8.9515,-8.9554,-8.956,-8.9372,-8.9347,-8.9323,-8.9292,-8.9562,-8.9562,-8.9752,-8.9754,-8.9755]}]]